Location: Treviso
(45.6669°N, 12.2430°E)
Time: 09:01:03
(UTC+01:00)

X-37B - Pass Details

Date: 07 December 2022
Orbit: 277 x 277 km, 45.0° (Epoch: 01 November)

Event Time Altitude Azimuth Distance (km) Brightness Sun altitude
Rises 18:29:59 0° 228° (SW) 1,906 5.1 -20.6°
Reaches altitude 10° 18:32:05 10° 213° (SSW) 1,097 3.4 -21.0°
Enters shadow 18:32:37 14° 204° (SSW) 919 2.9 -21.1°
